Date,TemperatureHighF,TemperatureAvgF,TemperatureLowF,DewpointHighF,DewpointAvgF,DewpointLowF,HumidityHigh,HumidityAvg,HumidityLow,PressureMaxIn,PressureMinIn,WindSpeedMaxMPH,WindSpeedAvgMPH,GustSpeedMaxMPH,PrecipitationSumIn
2012-8-12,67.1,63.6,60.1,55.5,54.9,54.1,83,74,63,29.80,29.71,15,8,15,0.00
2012-8-13,68.7,63.1,58.5,63.1,57.9,54.7,90,83,72,29.71,29.59,20,7,20,0.00
2012-8-14,67.3,62.2,57.0,62.6,58.7,54.0,95,88,76,29.80,29.62,12,4,12,0.21
2012-8-15,70.3,60.6,53.6,61.2,56.4,51.5,95,87,66,29.80,29.39,31,9,31,0.33
2012-8-16,68.0,60.9,55.9,58.7,55.4,53.2,95,83,69,29.77,29.47,20,8,20,0.08
2012-8-17,67.8,61.4,57.4,64.3,59.0,55.4,97,92,81,29.74,29.53,15,5,15,0.37
2012-8-18,67.8,63.7,58.5,64.2,58.8,53.0,95,85,64,29.92,29.62,17,5,17,0.05
2012-8-19,67.8,60.2,54.9,60.0,56.3,52.8,94,87,72,29.95,29.86,11,4,11,0.04
2012-8-20,68.4,60.8,54.0,59.5,56.5,52.0,95,86,69,29.95,29.86,17,5,17,0.00
2012-8-21,64.8,59.2,54.5,61.0,56.5,51.6,96,91,74,29.95,29.65,14,4,14,0.29
2012-8-22,65.8,58.5,54.1,59.3,54.4,51.9,94,87,69,29.77,29.65,21,7,21,0.08
2012-8-23,62.2,56.5,53.2,57.3,53.5,51.4,96,90,69,29.77,29.62,14,4,14,0.25
2012-8-24,62.2,57.3,53.2,57.4,53.6,51.8,96,88,72,29.62,29.44,12,3,12,0.04
2012-8-25,63.1,57.1,55.0,55.4,53.9,52.4,97,89,71,29.68,29.44,13,3,13,0.45
2012-8-26,58.5,53.5,49.8,54.4,50.5,46.6,97,90,75,29.86,29.68,14,4,14,0.21
2012-8-27,59.2,55.7,50.2,57.7,53.9,48.1,96,94,89,29.83,29.36,24,8,24,0.17
2012-8-28,63.7,56.8,52.0,54.3,51.1,47.9,95,82,59,29.62,29.39,24,8,24,0.04
2012-8-29,57.9,54.4,49.6,56.8,52.8,48.5,97,94,88,29.62,29.47,26,5,26,1.20
2012-8-30,58.5,52.0,46.8,48.7,42.9,37.5,98,74,48,30.27,29.62,12,3,12,0.00
2012-8-31,56.5,49.9,41.0,55.4,46.7,37.7,96,89,75,30.27,30.09,11,4,11,0.09
2012-9-1,63.7,58.3,56.3,57.7,55.7,53.1,96,91,71,30.09,29.86,19,7,19,0.00
2012-9-2,65.7,58.6,53.1,57.7,53.8,51.1,96,85,68,30.18,29.89,15,5,15,0.00
2012-9-3,70.5,61.1,55.9,60.6,55.8,52.5,95,83,58,30.18,29.95,15,6,15,0.08
2012-9-4,64.8,58.1,53.1,60.6,49.3,43.2,95,74,50,30.15,29.95,26,10,26,0.00
2012-9-5,63.7,54.8,48.0,53.3,46.6,43.7,93,75,52,30.30,30.15,17,5,17,0.00
2012-9-6,59.4,54.3,47.1,56.8,50.7,43.4,96,88,72,30.30,29.95,23,6,23,0.04
2012-9-7,63.1,59.5,57.7,60.7,57.9,56.6,97,94,89,30.07,29.95,17,5,17,0.08
2012-9-8,64.0,59.7,51.4,60.8,56.7,48.9,96,90,81,30.03,29.80,13,5,13,0.00
2012-9-9,61.5,55.2,46.6,57.5,52.7,44.9,97,91,80,29.80,29.36,15,4,15,0.05
2012-9-10,59.0,54.6,46.4,57.4,52.0,44.8,95,91,75,29.50,29.36,15,4,15,0.20
2012-9-11,57.4,49.0,43.7,48.1,43.9,38.7,97,84,57,29.68,29.47,25,7,25,0.05
2012-9-12,56.3,50.6,43.7,49.4,42.8,36.4,94,76,50,29.92,29.59,17,5,17,0.00
2012-9-13,58.3,51.7,41.7,54.8,48.4,37.5,94,88,83,29.95,29.42,23,9,28,0.16
2012-9-14,58.5,53.5,49.8,51.2,48.3,46.6,93,83,68,29.80,29.36,22,12,31,0.04
2012-9-15,58.5,53.9,49.1,51.4,48.3,45.1,92,81,67,29.83,29.65,13,8,19,0.00
2012-9-16,58.8,53.3,47.5,56.4,50.3,44.2,96,90,77,29.65,29.47,15,8,20,0.13
2012-9-17,57.2,50.3,45.0,50.3,47.0,42.9,95,89,69,29.53,29.44,19,7,23,0.16
2012-9-18,53.4,47.2,43.0,44.4,41.2,37.3,96,81,57,29.86,29.47,14,6,19,0.08
2012-9-19,56.3,46.8,38.5,47.4,42.3,35.8,95,85,64,29.95,29.86,13,5,16,0.05
2012-9-20,50.4,47.6,44.8,49.3,46.3,43.7,97,95,92,29.92,29.77,10,4,13,0.91
2012-9-21,51.8,44.8,37.4,45.1,39.7,35.4,98,83,56,30.01,29.86,5,2,7,0.00
2012-9-22,54.1,43.9,33.8,44.4,38.3,31.5,96,82,62,30.07,29.98,7,3,8,0.00
2012-9-23,55.9,47.0,37.6,45.6,39.6,34.3,93,76,56,29.98,29.59,12,6,17,0.00
2012-9-24,50.2,48.1,44.8,47.1,44.9,39.6,94,89,82,29.59,29.00,27,14,37,0.29
2012-9-25,53.6,49.6,46.6,50.0,46.6,42.4,97,90,81,29.06,28.77,26,16,34,0.41
2012-9-26,56.8,51.6,48.9,50.8,48.2,47.0,97,89,72,29.50,29.06,24,7,24,0.38
2012-9-27,53.6,50.1,47.7,48.0,46.9,43.6,96,89,72,29.59,29.47,10,4,11,0.04
2012-9-28,56.3,49.5,45.3,50.4,46.6,41.3,96,90,76,29.56,29.44,16,8,27,0.25
2012-9-29,56.7,50.1,45.5,48.0,43.9,39.8,91,80,56,29.83,29.56,21,10,24,0.00
2012-9-30,57.7,52.7,48.4,55.1,50.8,46.4,97,93,81,29.71,29.47,18,8,25,0.62
2012-10-1,55.9,50.7,46.9,50.2,48.2,44.4,96,91,73,29.50,29.03,12,7,18,0.16
2012-10-2,54.0,49.2,45.5,49.6,46.2,44.1,95,90,77,29.39,28.85,13,6,20,0.12
2012-10-3,51.1,45.6,40.5,48.9,43.8,39.1,97,93,83,29.30,29.03,10,5,17,0.34
2012-10-4,54.0,44.4,36.5,49.9,41.7,35.5,98,91,74,29.39,29.30,10,4,13,0.00
2012-10-5,52.2,45.7,41.4,47.5,42.5,40.0,97,89,69,29.50,29.21,8,4,11,0.08
2012-10-6,55.0,45.1,37.9,48.0,40.7,34.6,98,85,63,30.07,29.47,8,3,11,0.00
2012-10-7,51.8,41.4,33.6,43.0,36.5,31.5,96,84,63,30.18,30.07,6,3,9,0.00
2012-10-8,52.3,42.7,34.3,43.2,37.2,32.0,95,82,60,30.15,30.01,6,3,9,0.00
2012-10-9,48.9,41.0,33.3,40.5,34.2,30.4,93,78,57,30.09,30.03,5,2,6,0.00
2012-10-10,52.0,42.3,32.5,45.3,37.4,29.9,95,83,66,30.03,29.77,6,3,10,0.00
2012-10-11,54.7,49.9,32.0,49.5,47.7,45.3,97,92,78,29.77,29.50,9,4,13,0.50
2012-10-12,48.2,46.9,32.0,47.4,45.1,41.4,98,92,84,29.53,29.44,14,8,22,0.45
2012-10-13,49.6,46.0,44.2,44.9,42.7,40.1,94,88,83,29.56,29.53,11,5,16,0.04
2012-10-14,50.5,46.8,43.0,47.7,42.0,39.2,97,84,66,29.65,29.62,12,4,15,0.05
2012-10-15,48.7,41.0,36.1,42.2,37.2,31.7,97,87,65,29.65,29.36,6,2,10,0.05
2012-10-16,46.0,39.9,36.1,44.7,38.1,33.6,98,93,79,29.44,29.21,9,4,15,0.24
2012-10-17,47.7,45.0,35.6,45.9,44.2,34.8,98,97,90,29.47,29.18,13,7,18,0.42
2012-10-18,51.4,45.1,37.9,48.4,44.0,37.4,98,96,83,29.62,29.30,10,5,14,0.21
2012-10-19,50.2,47.7,46.4,49.2,47.0,45.3,98,97,94,29.77,29.62,14,8,18,0.24
2012-10-20,54.9,48.3,44.4,52.0,46.6,43.0,98,94,82,30.03,29.74,8,3,11,0.05
2012-10-21,56.8,48.1,39.6,50.2,45.4,38.1,98,91,71,30.27,30.03,8,4,11,0.00
2012-10-22,48.7,43.6,36.1,46.9,42.2,35.3,98,95,85,30.39,30.27,12,5,17,0.00
2012-10-23,52.0,49.8,47.5,50.3,48.7,46.7,98,96,93,30.45,30.39,9,5,12,0.00
2012-10-24,51.8,47.8,40.1,49.1,44.6,38.4,96,89,71,30.42,30.24,11,6,15,0.00
2012-10-25,49.3,43.1,35.8,45.5,38.6,28.1,97,84,65,30.24,30.15,17,3,26,0.00
2012-10-26,42.1,35.9,31.8,33.0,26.3,22.3,85,69,49,30.24,30.03,6,3,13,0.00
2012-10-27,44.1,35.7,27.0,42.2,29.9,23.1,95,80,55,30.18,29.89,8,3,11,0.04
2012-10-28,47.5,45.5,42.3,45.9,44.3,41.5,97,95,94,29.89,29.50,11,5,21,0.17
2012-10-29,46.9,41.8,35.6,45.7,40.2,33.5,98,94,82,29.77,29.59,6,2,9,0.04
2012-10-30,47.3,43.6,36.7,46.0,42.5,35.4,97,96,91,29.65,28.97,17,7,26,0.16
2012-10-31,45.9,41.4,34.7,43.3,40.1,33.9,98,95,89,28.97,28.65,17,4,25,0.50
2012-11-1,42.8,38.1,34.5,41.3,36.5,32.6,98,94,85,28.77,28.65,10,3,21,0.33
2012-11-2,44.1,39.9,34.5,42.1,37.8,33.2,97,92,84,29.18,28.65,16,7,26,0.34
2012-11-3,41.5,36.2,33.1,37.4,33.2,31.3,97,89,72,29.24,29.18,9,5,13,0.00
2012-11-4,43.9,37.2,32.7,40.4,35.0,31.2,97,92,78,29.62,29.24,10,5,14,0.00
2012-11-5,42.1,35.1,30.7,39.9,33.8,29.5,98,95,86,30.03,29.62,5,2,6,0.00
2012-11-6,50.2,44.9,31.1,48.9,43.7,30.1,98,96,89,30.12,29.98,13,7,19,0.04
2012-11-7,49.6,47.4,46.4,48.3,45.6,43.5,96,94,89,30.12,29.86,15,9,24,0.37
2012-11-8,49.3,46.2,43.5,45.6,43.6,40.8,96,91,81,29.98,29.74,14,8,21,0.00
2012-11-9,48.0,45.5,40.5,46.8,43.5,38.6,97,93,87,29.74,29.36,14,7,20,0.21
2012-11-10,45.3,40.6,34.9,42.3,38.7,34.1,98,93,86,29.47,29.27,8,3,11,0.04
2012-11-11,43.3,37.1,32.0,42.1,36.0,31.7,98,95,88,30.01,29.47,6,2,10,0.00
2012-11-12,52.7,45.1,36.9,52.0,43.9,35.2,98,95,92,30.01,29.86,12,6,17,0.04
2012-11-13,55.0,52.0,47.5,52.3,50.2,46.7,97,93,85,30.18,29.98,15,6,26,0.17
2012-11-14,48.9,46.6,39.9,48.4,45.9,39.2,98,98,97,30.30,30.15,5,2,8,0.24
2012-11-15,49.8,43.9,37.2,49.3,43.3,36.7,98,98,96,30.30,30.01,9,4,13,0.04
2012-11-16,46.6,44.0,42.3,45.8,41.4,38.6,97,90,82,30.01,29.71,8,4,11,0.00
2012-11-17,43.3,40.1,35.1,42.3,38.4,33.7,97,94,85,29.71,29.65,10,4,14,0.13
2012-11-18,43.2,37.9,34.2,41.6,36.3,32.9,98,94,87,29.86,29.59,13,5,24,0.04
2012-11-19,52.2,47.7,39.4,50.3,45.9,37.5,98,94,87,29.59,29.27,16,10,33,0.71
2012-11-20,55.0,49.0,44.6,52.2,45.3,37.9,95,87,72,29.53,29.30,16,8,25,0.00
2012-11-21,47.7,42.4,39.2,44.2,39.7,37.1,95,90,81,29.68,29.53,10,4,14,0.00
2012-11-22,48.7,44.1,39.9,47.1,42.6,38.6,96,94,91,29.56,29.24,21,8,30,0.00
2012-11-23,43.7,39.9,34.9,40.7,37.7,33.6,96,92,84,29.86,29.27,13,6,18,0.00
2012-11-24,38.1,35.6,33.4,37.2,34.3,32.7,97,95,89,29.95,29.62,9,4,12,0.04
2012-11-25,41.2,38.4,35.1,40.7,37.8,34.6,98,98,92,29.65,29.44,7,3,13,0.33
2012-11-26,41.7,38.4,34.5,39.1,36.1,34.0,98,92,82,29.80,29.62,4,2,8,0.00
2012-11-27,42.8,37.8,33.1,37.3,33.2,29.9,92,83,75,30.07,29.80,5,2,8,0.00
2012-11-28,37.2,31.7,26.6,32.2,27.7,24.1,90,85,74,30.12,30.07,6,2,8,0.00
2012-11-29,32.5,28.3,24.8,29.7,26.0,22.5,93,91,88,30.09,29.83,5,3,6,0.00
2012-11-30,35.6,31.0,25.7,34.9,29.2,23.7,98,93,89,29.89,29.80,5,2,7,0.08
2012-12-1,35.4,30.9,26.1,34.9,30.0,24.8,98,96,93,30.01,29.86,7,2,10,0.00
2012-12-2,32.7,28.8,25.2,31.7,27.6,23.9,97,95,94,30.01,29.71,7,3,9,0.00
2012-12-3,37.2,34.1,32.2,36.7,33.5,31.2,98,98,96,29.71,29.44,9,3,14,0.25
2012-12-4,35.4,32.2,28.8,34.9,31.6,28.3,98,98,95,29.71,29.44,11,3,15,0.29
2012-12-5,33.6,27.3,23.5,31.4,25.0,20.8,97,91,78,29.98,29.71,6,2,10,0.00
2012-12-6,36.7,33.4,25.0,36.0,31.5,21.7,98,93,81,29.92,29.21,12,6,22,0.33
2012-12-7,39.6,34.0,29.1,37.1,31.7,26.8,98,91,75,30.12,29.30,9,3,14,0.05
2012-12-8,45.3,37.2,27.5,44.8,36.3,26.0,98,96,93,30.15,29.98,19,6,30,0.04
2012-12-9,43.9,39.5,33.6,42.6,34.9,29.7,96,84,75,30.18,29.89,15,8,23,0.04
2012-12-10,36.3,30.7,25.3,31.6,27.2,23.1,91,87,77,30.48,30.18,5,2,6,0.00
2012-12-11,31.6,26.3,22.6,29.4,24.1,20.1,93,91,90,30.48,30.24,5,2,7,0.00
2012-12-12,33.8,31.3,27.9,32.8,29.9,26.3,97,95,91,30.24,29.80,5,3,7,0.00
2012-12-13,34.7,32.1,28.4,31.0,27.6,17.6,95,84,63,29.80,29.42,9,4,13,0.00
2012-12-14,39.4,35.0,28.9,38.1,30.6,17.7,97,84,64,29.42,28.59,13,7,18,0.21
2012-12-15,42.4,40.2,35.8,41.6,39.5,34.8,98,97,96,29.18,28.62,11,6,15,0.08
2012-12-16,44.4,40.3,36.9,42.8,39.3,36.3,98,96,93,29.33,29.18,8,4,12,0.00
2012-12-17,41.0,39.9,38.7,39.8,38.8,37.5,98,96,92,29.71,29.27,9,4,11,0.04
2012-12-18,42.6,39.9,38.1,41.8,39.2,36.6,98,97,93,30.12,29.77,9,2,12,0.00
2012-12-19,42.3,40.8,39.4,38.9,36.6,35.0,94,85,76,30.07,29.80,15,10,25,0.17
2012-12-20,41.2,39.9,38.7,38.2,37.6,37.1,95,91,88,29.80,29.50,15,8,22,0.29
2012-12-21,40.5,39.2,37.8,39.7,38.2,36.7,97,96,92,29.86,29.56,10,6,15,0.21
2012-12-22,46.2,41.5,37.8,45.7,40.5,36.7,98,96,89,29.80,29.18,20,8,23,0.45
2012-12-23,48.6,45.3,43.2,48.0,43.6,40.1,98,94,86,29.44,28.91,28,12,37,0.58
2012-12-24,44.2,41.2,37.0,43.3,40.0,35.7,98,96,91,29.44,29.15,10,5,17,0.17
2012-12-25,42.1,38.2,34.7,41.6,37.4,34.2,98,97,94,29.30,29.09,12,4,17,0.21
2012-12-26,40.5,38.2,35.1,39.0,37.1,34.0,98,96,92,29.44,29.24,15,6,20,0.25
2012-12-27,36.3,35.3,33.8,35.1,33.6,31.9,96,94,87,29.95,29.27,13,5,17,0.08
2012-12-28,52.0,45.7,32.0,49.1,44.2,35.3,98,94,89,29.92,29.21,19,12,31,0.38
2012-12-29,52.0,43.4,37.4,48.9,40.0,33.9,93,88,80,29.21,29.15,20,9,31,0.24
2012-12-30,48.2,39.4,34.7,47.5,37.6,32.1,98,93,86,29.42,29.18,21,11,27,0.58
2012-12-31,48.7,43.3,34.7,46.9,40.5,32.2,96,90,82,29.33,28.97,24,11,33,0.29
2013-1-1,43.7,38.5,34.9,40.4,36.5,33.2,96,93,87,29.95,29.30,13,6,23,0.04